User: anonymous   Login
Location: Nianha
(10.8000°N, 4.6333°W)
Time: 08:51:24
(UTC+00:00)
Language:

Okean 3 Rocket - Orbit

View from above orbital plane
View from above orbital plane
View from above satellite
View from above satellite

Ground track
Ground track

The orbit data is extracted from the following two-line orbital elements,

1 21398U 91039B   20055.47353036  .00000037  00000-0  18042-5 0  9998
2 21398  82.5229  31.7221 0020841 198.9377 161.1064 14.79755796549162
Epoch (UTC): 24 February 2020 11:21:53
Eccentricity: 0.0020841
inclination: 82.5229°
perigee height: 615 km
apogee height: 645 km
right ascension of ascending node: 31.7221°
argument of perigee: 198.9377°
revolutions per day: 14.79755796
mean anomaly at epoch: 161.1064°
orbit number at epoch: 54916

The dashed part of the orbit path shows where the satellite is in the earth's shadow,  

DLR